Home > Weather > Kaliningrad > Past weeks

Flag for Russia Past Weather in Kaliningrad, Russia — Yesterday and Last 2 Weeks

Now
55 °F

Clear.


Feels Like: 55 °F
Forecast: 60 / 74 °F
Wind: 3 mph from Southwest

Location: Kaliningrad/Khrabrovo Airport

Current Time: Jun 30, 2016 at 5:28:09 AM

Latest Report: Jun 30, 2016 at 4:30 AM


Visibility: 10 mi

Pressure: 29.92 "Hg

Humidity: 100%

Dew Point: 55 °F

Location of KaliningradLocation

Past Weather in Kaliningrad — Graph

°F

Kaliningrad Temperature Yesterday

Maximum temperature yesterday: 77 °F (at 3:00 PM)
Minimum temperature yesterday: 55 °F (at 4:30 AM)
Average temperature yesterday: 67 °F

High & Low Weather Summary for the Past Weeks

 TemperatureHumidityPressure
High90 °F (Jun 25, 1:00 PM)100% (Jun 15, 9:30 PM)30.30 "Hg (Jun 15, 9:30 PM)
Low50 °F (Jun 15, 4:00 AM)35% (Jun 23, 2:30 PM)29.30 "Hg (Jun 17, 3:00 PM)
Average66 °F74%29.95 "Hg
* Reported Jun 15 4:00 AM — Jun 30 4:00 AM, Kaliningrad, Weather by CustomWeather, © 2016

Note: Actual official high and low records may vary slightly from our data, if they occured in-between our weather recording intervals... More about our weather records

Advertising

Kaliningrad Weather History for the Previous 24 Hours

Scroll right to see more
 ConditionsComfort  
Time TempWeatherWind HumidityBarometerVisibility
4:00 AM
Thu, Jun 30
55 °FClear.1 mph100%29.92 "Hg10 mi
3:00 AM55 °FClear.3 mph100%29.92 "Hg10 mi
2:00 AM57 °FClear.3 mph100%29.92 "Hg10 mi
1:00 AM59 °FClear.3 mph100%29.89 "Hg10 mi
12:00 AM63 °FClear.3 mph88%29.92 "Hg10 mi
11:00 PM
Wed, Jun 29
64 °FClear.6 mph88%29.89 "Hg10 mi
10:30 PM63 °FClear.3 mph94%29.89 "Hg10 mi
10:00 PM64 °FSunny.3 mph94%29.89 "Hg10 mi
9:30 PM64 °FSunny.6 mph94%29.86 "Hg10 mi
9:00 PM64 °FPassing clouds.3 mph94%29.86 "HgN/A
8:30 PM64 °FScattered clouds.1 mph94%29.86 "HgN/A
8:00 PM64 °FScattered clouds.3 mph88%29.89 "HgN/A
7:30 PM70 °FSprinkles. Partly sunny.3 mph78%29.89 "HgN/A
7:00 PM70 °FScattered clouds.3 mph69%29.89 "HgN/A
6:30 PM68 °FSprinkles. Scattered clouds.1 mph78%29.89 "HgN/A
6:00 PM70 °FScattered clouds.6 mph73%29.89 "HgN/A
5:30 PM68 °FScattered clouds.8 mph78%29.89 "HgN/A
5:00 PM68 °FScattered clouds.6 mph73%29.89 "HgN/A
4:30 PM68 °FSprinkles. Partly sunny.6 mph78%29.92 "HgN/A
4:00 PM70 °FPartly sunny.6 mph69%29.92 "HgN/A
3:30 PM73 °FScattered clouds.3 mph57%29.92 "HgN/A
3:00 PM77 °FScattered clouds.8 mph36%29.92 "HgN/A
2:30 PM75 °FPassing clouds.8 mph36%29.92 "HgN/A
2:00 PM75 °FPassing clouds.8 mph39%29.92 "HgN/A
1:30 PM73 °FPassing clouds.8 mph47%29.92 "HgN/A
1:00 PM73 °FScattered clouds.10 mph47%29.92 "HgN/A
12:30 PM73 °FScattered clouds.8 mph53%29.95 "HgN/A
12:00 PM72 °FScattered clouds.10 mph61%29.95 "HgN/A
11:30 AM72 °FScattered clouds.13 mph61%29.95 "HgN/A
11:00 AM70 °FScattered clouds.8 mph64%29.95 "HgN/A
10:30 AM70 °FPartly sunny.10 mph73%29.95 "HgN/A
10:00 AM70 °FPartly sunny.8 mph69%29.92 "HgN/A
9:30 AM70 °FSunny.6 mph64%29.92 "Hg10 mi
9:00 AM70 °FSunny.6 mph64%29.92 "Hg10 mi
8:30 AM68 °FPassing clouds.6 mph69%29.95 "HgN/A
8:00 AM68 °FPassing clouds.6 mph69%29.95 "HgN/A
7:30 AM66 °FPassing clouds.3 mph78%29.95 "HgN/A
7:00 AM64 °FPassing clouds.3 mph83%29.95 "HgN/A
6:30 AM61 °FClear.1 mph94%29.95 "Hg6 mi
6:00 AM59 °FClear.1 mph94%29.95 "Hg6 mi
5:30 AM57 °FRain. Fog.No wind100%29.95 "Hg3 mi
5:00 AM55 °FFog.1 mph100%29.95 "Hg1 mi
Weather by CustomWeather, © 2016

See weather overviewHow to use our weather pages